Regional Weather Roundup
Issued by NWS

Home | Current Version | Previous Version | Graphics & Text | Print | Product List | Glossary On
Versions: 1 2 3 4 5 6 7 8 9 10 11 12 13 14 15 16 17 18 19 20 21 22 23 24 25 26 27
000
ASUS45 KBOU 291707
RWRCO

WEATHER ROUNDUP FOR COLORADO
NATIONAL WEATHER SERVICE DENVER/BOULDER CO
1100 AM MDT MON MAY 29 2017

NOTE: "FAIR" INDICATES FEW OR NO CLOUDS BELOW 12000 FEET WITH NO
SIGNIFICANT WEATHER AND/OR OBSTRUCTIONS TO VISIBILITY.

COZ001>005-013-030-031-291800-
...NORTHWEST COLORADO...

CITY           SKY/WX    TMP DP  RH WIND       PRES   REMARKS
CRAIG          FAIR      61  37  41 CALM      30.28S
HAYDEN         FAIR      59  34  38 W6        30.28S
MEEKER         FAIR      63  35  35 VRB7      30.26F
RABBIT EARS PA FAIR      45  27  49 W6        30.45R
STEAMBOAT SPGS FAIR      58  35  42 W3        30.28F
WALDEN           N/A     54  32  43 W5        30.36S
$$

COZ006>008-011-291800-
...WEST CENTRAL VALLEYS...

CITY           SKY/WX    TMP DP  RH WIND       PRES   REMARKS
GRAND JUNCTION FAIR      71  29  21 SE9       30.17F
MONTROSE       FAIR      68  27  21 N7        30.23F
EAGLE          SUNNY     59  30  33 S3        30.29F
RIFLE          FAIR      69  30  23 VRB5      30.21F
DELTA          FAIR      70  25  18 S5        30.20F
NUCLA          FAIR      68  27  21 N7        30.25F
$$

COZ017>023-064>068-291800-
...SOUTHWEST COLORADO...

CITY           SKY/WX    TMP DP  RH WIND       PRES   REMARKS
DURANGO        FAIR      67  24  19 VRB5      30.25F
CORTEZ         FAIR      69  24  18 CALM      30.20F
PAGOSA SPRINGS FAIR      63  21  20 SE7       30.31F
TELLURIDE      FAIR      60  16  18 CALM      30.38S
WOLF CREEK PAS FAIR      41  14  33 S9G16     30.55S
$$

COZ009-010-012-014-032>034-037-058>063-291800-
...CENTRAL COLORADO...

CITY           SKY/WX    TMP DP  RH WIND       PRES   REMARKS
ASPEN          FAIR      61  26  26 NE7       30.30F
BUENA VISTA    FAIR      58  27  30 S3        30.32F
COPPER MTN     CLOUDY    41  19  42 SW3       30.50S
BERTHOUD PASS  CLOUDY    32  23  69 NW9G22    30.52S HAZE    WCI  24
COTTONWOOD PAS FAIR      55  28  35 E6        30.41S
GUNNISON       FAIR      58  24  27 CALM      30.31F
KREMMLING      FAIR      61  34  36 NE5       30.32F
LEADVILLE      FAIR      50  18  28 NW5       30.38F
MONARCH PASS   FAIR      43  18  36 SW9G17    30.60S
SALIDA         FAIR      62  29  29 SE3       30.38F
SUNLIGHT       FAIR      43  18  36 N3        30.49S
WILKERSON PASS FAIR      43  25  49 CALM      30.50S
$$

COZ069>075-291800-
...SAN LUIS VALLEY/SANGRE DE CRISTO MOUNTAINS...

CITY           SKY/WX    TMP DP  RH WIND       PRES   REMARKS
ALAMOSA        FAIR      60  32  34 VRB7      30.30F
DEL NORTE      FAIR      58  30  34 E9        30.33S
LA VETA PASS   PTSUNNY   48  34  57 MISG      30.53F
SAGUACHE       FAIR      61  28  29 S9        30.32F
$$

COZ035-036-038>040-291800-
...NORTHERN COLORADO FRONT RANGE...

CITY           SKY/WX    TMP DP  RH WIND       PRES   REMARKS
DENVER INTL AP FAIR      64  42  44 VRB3      30.26F
DMNS CITY PARK   N/A     64  39  39 E7G18     30.25F
AURORA         MOSUNNY   62  38  41 CALM      30.27S
FRONT RANGE AP MOSUNNY   64  41  42 E8G16     30.28S
ERIE MUNI ARPT FAIR      65  40  40 CALM      30.24F
BOULDER MUN AP FAIR      64  39  39 E5        30.24F
CENTENNIAL     FAIR      62  40  44 SE8       30.27F
BROOMFIELD     MOSUNNY   64  39  39 SE97      30.26F
FORT COLLINS   FAIR      65  40  39 VRB5      30.26S
LONGMONT       FAIR      69  45  41 E6        30.25F
$$

COZ041-046-047-076>085-087-088-291800-
...PIKES PEAK/PALMER DIVIDE AND SOUTHERN FOOTHILLS...

CITY           SKY/WX    TMP DP  RH WIND       PRES   REMARKS
COLO. SPRINGS  FAIR      63  38  39 S13G18    30.30S
A. F. ACADEMY  FAIR      62  37  39 SE12      30.29F
SCHRIEVER AFB  FAIR      60  37  41 SE13G20   30.30S
CHEYENNE MTN   NOT AVBL
ELLICOTT       FAIR     N/A N/A N/A S6        30.28F
FALCON         NOT AVBL
FORT CARSON    FAIR      63  37  38 S12       30.27F
LIMON          FAIR      63  43  48 N6        30.27F
MONUMENT HILL  FAIR      57  37  47 SE9       30.33S
CANON CITY     NOT AVBL
WALSENBURG     FAIR      63  45  51 NE6       30.29S
TRINIDAD       FAIR      65  37  35 CALM      30.26F
$$

COZ042>045-048>051-090-091-291800-
...NORTHEAST COLORADO...

CITY           SKY/WX    TMP DP  RH WIND       PRES   REMARKS
GREELEY ARPT   FAIR      67  45  45 S6        30.25F
AKRON          PTSUNNY   65  41  41 N12       30.25S
BURLINGTON     FAIR      68  45  43 NW12      30.23R
WRAY           FAIR      70  36  28 N10       30.20S
YUMA           PTSUNNY   64  37  36 N8        30.22S
STERLING       NOT AVBL
HOLYOKE        NOT AVBL
FORT MORGAN    FAIR      67  36  31 N3        30.24F
$$

COZ086-089-092>099-291800-
...SOUTHEAST COLORADO...

CITY           SKY/WX    TMP DP  RH WIND       PRES   REMARKS
PUEBLO         FAIR      66  40  38 VRB3      30.24F
LA JUNTA       FAIR      68  44  42 NE9       30.23F
LAMAR          FAIR      70  43  37 CALM      30.21F
SPRINGFIELD      N/A     68  44  42 VRB5      30.23F
$$




USA.gov is the U.S. government's official web portal to all federal, state and local government web resources and services.